User: anonymous   Login
Location: Columbia
(38.9520°N, 92.3340°W)
Time: 03:40:15
(UTC-05:00)
Language:

Cosmos 1633 - Orbit

View from above orbital plane
View from above orbital plane
View from above satellite
View from above satellite

Ground track
Ground track

The orbit data is extracted from the following two-line orbital elements,

1 15592U 85020A   17142.91762818 +.00001654 +00000-0 +58421-4 0  9994
2 15592 082.5372 344.6326 0011987 266.7743 093.2125 15.28414931760159
Epoch (UTC): 22 May 2017 22:01:23
Eccentricity: 0.0011987
inclination: 82.5372°
perigee height: 472 km
apogee height: 489 km
right ascension of ascending node: 344.6326°
argument of perigee: 266.7743°
revolutions per day: 15.28414931
mean anomaly at epoch: 93.2125°
orbit number at epoch: 76015

The dashed part of the orbit path shows where the satellite is in the earth's shadow,  

DLR